This demonstration page uses our WeatherBlox Daily Observations layout. Learn more.

41.55636, -103.73856

Hourly Observations for August 25, 2019

Temp ( °F °C ) Dew Point ( °F °C ) Humidity (%) Winds ( mph kmh ) Pressure ( in mb ) Visibility ( mi km ) Precip ( " mm )
12:58 am 00:58 Clear 62 16.9 57 13.9 83 83 SW 8 13 29.8 1009 10 16.09344 0 0
1:58 am 01:58 Clear 62 16.8 57 13.8 83 83 SW 9 15 29.77 1008 10 16.09344 0 0
2:58 am 02:58 Clear 61 15.9 56 13.5 86 86 SW 6 9 29.77 1008 10 16.09344 0 0
3:58 am 03:58 Clear 58 14.5 55 12.9 90 90 SSW 5 7 29.74 1007 10 16.09344 0 0
4:58 am 04:58 Partly Cloudy 56 13.2 54 12.2 94 94 S 6 9 29.74 1007 10 16.09344 0 0
5:58 am 05:58 Clear 55 12.8 53 11.7 93 93 SSW 6 9 29.74 1007 10 16.09344 0 0
6:58 am 06:58 Sunny 55 13 53 11.9 93 93 WSW 7 11 29.77 1008 10 16.09344 0 0
7:58 am 07:58 Sunny 63 17.1 51 10.8 67 67 NW 7 11 29.77 1008 10 16.09344 0 0
8:58 am 08:58 Sunny 69 20.5 53 11.7 57 57 NNW 8 13 29.77 1008 10 16.09344 0 0
9:58 am 09:58 Sunny 75 23.7 55 12.7 50 50 NW 7 11 29.77 1008 10 16.09344 0 0
10:58 am 10:58 Sunny 81 27.2 49 9.3 32 32 NW 9 15 29.74 1007 10 16.09344 0 0
11:58 am 11:58 Sunny 84 28.8 48 8.8 29 29 NNW 13 20 29.74 1007 10 16.09344 0 0
12:58 pm 12:58 Sunny 83 28.2 57 13.9 42 42 NE 8 13 29.71 1006 10 16.09344 0 0
1:58 pm 13:58 Sunny 84 28.9 53 11.8 35 35 NNE 6 9 29.71 1006 10 16.09344 0 0
2:58 pm 14:58 Sunny 84 28.7 49 9.6 30 30 Calm 29.71 1006 10 16.09344 0 0
3:58 pm 15:58 Sunny 85 29.2 51 10.8 32 32 N 3 6 29.68 1005 10 16.09344 0 0
4:58 pm 16:58 Sunny 85 29.2 51 10.7 32 32 ENE 3 6 29.68 1005 10 16.09344 0 0
5:58 pm 17:58 Mostly Cloudy 81 27.3 56 13.2 42 42 SE 3 6 29.68 1005 10 16.09344 0 0
6:58 pm 18:58 Mostly Sunny 76 24.3 58 14.7 55 55 SSE 7 11 29.68 1005 10 16.09344 0 0
7:58 pm 19:58 Clear 70 20.9 59 14.9 69 69 S 9 15 29.68 1005 10 16.09344 0 0
8:58 pm 20:58 Clear 69 20.4 60 15.3 73 73 SSE 8 13 29.68 1005 10 16.09344 0 0
9:58 pm 21:58 Clear 67 19.4 60 15.7 79 79 S 8 13 29.68 1005 10 16.09344 0 0
10:58 pm 22:58 Mostly Clear 67 19.6 60 15.4 77 77 SW 12 19 29.65 1004 10 16.09344 0 0
11:58 pm 23:58 Mostly Cloudy 69 20.6 52 10.9 54 54 W 12 19 29.62 1003 10 16.09344 0 0

Powered by AerisWeather